ZIYUAN 3-2 (ZY 3-2)

Last updated on Sat Apr 13 2024 01:02:24 GMT+0100 (British Summer Time)

1 41556U 16033A 24103.57620178 .00008547 00000+0 38942-3 0 9992 2 41556 97.4580 179.5752 0003105 336.3964 23.7128 15.20907297437026
UTC large
Height (km)
Speed (km/s)
/
Latitude / Longitude
Inclination (degrees)
Orbital Period (minutes)
Azimuth
Elevation
Range (km)
Doppler Factor

Next 0 passes for location: London (51.5072 / 0.1276)

Sorry there are no passes over London.